| time (UTC) | temp F | wind direction | speed knots | gust knots | rain 1hr in | rain 24hr in | rain mn in | humidity % | barometer mb |
| 20260906163016 | 73 | 0.0 | 5.2 | 0.00 | 0.00 | 0.00 | 83 | 1018.3 | |
| 20260906160016 | 72 | 68 | 3.5 | 11.3 | 0.00 | 0.00 | 0.00 | 87 | 1018.1 |
| 20260906153037 | 70 | 68 | 2.6 | 7.0 | 0.00 | 0.00 | 0.00 | 88 | 1018.2 |
| 20260906150017 | 70 | 68 | 0.9 | 6.1 | 0.00 | 0.00 | 0.00 | 88 | 1018.3 |
| 20260906143017 | 70 | 68 | 2.6 | 6.1 | 0.00 | 0.00 | 0.00 | 89 | 1017.9 |
| 20260906140037 | 69 | 90 | 0.9 | 7.0 | 0.00 | 0.00 | 0.00 | 90 | 1017.7 |
| 20260906133017 | 69 | 90 | 0.9 | 8.7 | 0.00 | 0.00 | 0.00 | 90 | 1017.6 |
| 20260906130017 | 68 | 113 | 2.6 | 9.6 | 0.00 | 0.00 | 0.00 | 92 | 1017.1 |
| 20260906123017 | 68 | 113 | 2.6 | 11.3 | 0.00 | 0.00 | 0.00 | 92 | 1017.0 |
| 20260906120017 | 68 | 113 | 0.9 | 9.6 | 0.00 | 0.00 | 0.00 | 93 | 1017.0 |
| 20260906113017 | 68 | 0.0 | 7.0 | 0.00 | 0.00 | 0.00 | 94 | 1016.8 | |
| 20260906110017 | 68 | 0.0 | 5.2 | 0.00 | 0.00 | 0.00 | 92 | 1016.6 | |
| 20260906103017 | 68 | 0.0 | 5.2 | 0.00 | 0.00 | 0.00 | 93 | 1016.3 | |
| 20260906100017 | 68 | 0.0 | 5.2 | 0.00 | 0.00 | 0.00 | 93 | 1016.2 | |
| 20260906093017 | 69 | 90 | 2.6 | 8.7 | 0.00 | 0.00 | 0.00 | 92 | 1015.7 |
| 20260906090017 | 69 | 68 | 2.6 | 8.7 | 0.00 | 0.00 | 0.00 | 92 | 1015.6 |
| 20260906083017 | 70 | 68 | 0.9 | 8.7 | 0.00 | 0.00 | 0.00 | 91 | 1015.5 |
| 20260906080037 | 71 | 90 | 3.5 | 11.3 | 0.00 | 0.00 | 0.00 | 90 | 1015.6 |
| 20260906073108 | 71 | 45 | 3.5 | 15.6 | 0.00 | 0.00 | 0.00 | 89 | 1015.6 |
| 20260906070017 | 71 | 68 | 3.5 | 11.3 | 0.00 | 0.00 | 0.00 | 89 | 1016.0 |
| 20260906063057 | 71 | 45 | 2.6 | 8.7 | 0.00 | 0.00 | 0.00 | 89 | 1016.4 |
| 20260906060037 | 72 | 68 | 3.5 | 9.6 | 0.00 | 0.00 | 0.00 | 88 | 1016.1 |
| 20260906053017 | 72 | 45 | 3.5 | 8.7 | 0.00 | 0.00 | 0.00 | 88 | 1015.9 |
| 20260906050105 | 72 | 68 | 3.5 | 9.6 | 0.00 | 0.00 | 0.00 | 88 | 1015.7 |
| 20260906043016 | 73 | 45 | 2.6 | 6.1 | 0.00 | 0.00 | 0.00 | 87 | 1015.9 |
| 20260906040016 | 74 | 45 | 2.6 | 6.1 | 0.00 | 0.00 | 0.00 | 87 | 1015.8 |
| 20260906033016 | 74 | 68 | 0.9 | 6.1 | 0.00 | 0.00 | 0.00 | 86 | 1015.7 |
| 20260906030016 | 74 | 68 | 2.6 | 6.1 | 0.00 | 0.00 | 0.00 | 86 | 1015.3 |
| 20260906023016 | 75 | 68 | 2.6 | 6.1 | 0.00 | 0.00 | 0.00 | 86 | 1015.2 |
| 20260906020036 | 76 | 68 | 3.5 | 9.6 | 0.00 | 0.00 | 0.00 | 85 | 1014.6 |
| 20260906013017 | 76 | 113 | 0.9 | 7.0 | 0.00 | 0.00 | 0.00 | 85 | 1013.9 |
| 20260906010036 | 77 | 0.0 | 3.5 | 0.00 | 0.00 | 0.00 | 85 | 1013.8 | |
| 20260906003036 | 77 | 0.0 | 2.6 | 0.00 | 0.00 | 0.00 | 83 | 1013.4 | |
| 20260906000017 | 78 | 113 | 0.9 | 8.7 | 0.00 | 0.00 | 0.00 | 81 | 1013.2 |
| 20260905233036 | 79 | 45 | 5.2 | 15.6 | 0.00 | 0.00 | 0.00 | 78 | 1013.4 |
| 20260905230016 | 80 | 45 | 6.1 | 15.6 | 0.00 | 0.00 | 0.00 | 76 | 1013.0 |
| 20260905223017 | 82 | 45 | 6.1 | 17.4 | 0.00 | 0.00 | 0.00 | 76 | 1013.0 |
| 20260905220016 | 82 | 45 | 7.0 | 18.2 | 0.00 | 0.00 | 0.00 | 77 | 1013.0 |
| 20260905213016 | 82 | 45 | 6.1 | 14.8 | 0.00 | 0.00 | 0.00 | 77 | 1013.2 |
| 20260905210016 | 83 | 23 | 6.1 | 13.0 | 0.00 | 0.00 | 0.00 | 76 | 1013.6 |
| 20260905203017 | 83 | 23 | 6.1 | 14.8 | 0.00 | 0.00 | 0.00 | 77 | 1013.9 |
| 20260905200037 | 85 | 23 | 5.2 | 12.2 | 0.00 | 0.00 | 0.00 | 75 | 1014.1 |
| 20260905193016 | 86 | 23 | 5.2 | 11.3 | 0.00 | 0.00 | 0.00 | 73 | 1014.2 |
| 20260905190037 | 85 | 0 | 3.5 | 12.2 | 0.00 | 0.00 | 0.00 | 75 | 1014.6 |
| 20260905183037 | 86 | 23 | 3.5 | 12.2 | 0.00 | 0.00 | 0.00 | 74 | 1014.7 |
| 20260905180017 | 84 | 23 | 6.1 | 13.0 | 0.00 | 0.00 | 0.00 | 77 | 1014.5 |
| 20260905173017 | 85 | 23 | 6.1 | 13.0 | 0.00 | 0.00 | 0.00 | 77 | 1014.4 |
| 20260905170057 | 85 | 23 | 6.1 | 14.8 | 0.00 | 0.00 | 0.00 | 77 | 1014.5 |